1518912000.46,24151,10.0,72932.5,-12.81,-16.27,-16.23,0,*6D
1518912001.72,24152,10.0,72934.5,-12.81,-16.27,-16.27,0,*6A
1518912002.98,24153,10.0,72934.5,-12.81,-16.27,-16.27,0,*6B
1518912004.25,24154,10.06,72934.3,-12.81,-16.27,-16.27,0,*6C
1518912005.51,24155,10.06,72934.8,-12.81,-16.27,-16.27,0,*6D
1518912006.77,24156,10.0,72932.3,-12.85,-16.31,-16.31,0,*6A
1518912008.03,24157,10.0,72932.5,-12.85,-16.31,-16.31,0,*6B
1518912009.3,24158,10.0,72932.5,-12.81,-16.27,-16.27,0,*60
1518912010.56,24159,10.0,72934.3,-12.81,-16.27,-16.27,0,*61
1518912011.83,24160,10.0,72934.0,-12.81,-16.27,-16.27,0,*6B
1518912013.04,24161,10.06,72934.3,-12.81,-16.37,-16.37,0,*6A
1518912014.3,24162,10.0,72930.8,-12.85,-16.31,-16.31,0,*6D
1518912015.56,24163,10.06,72934.8,-12.85,-16.31,-16.31,0,*6C
1518912016.8,24164,10.0,72934.0,-12.81,-16.27,-16.37,0,*6E
1518912018.06,24165,10.0,72934.5,-12.81,-16.27,-16.27,0,*6E
1518912019.32,24166,10.06,72934.0,-12.81,-16.27,-16.27,0,*6D
1518912020.56,24167,10.06,72934.8,-12.81,-16.27,-16.37,0,*6D
1518912021.83,24168,10.0,72934.3,-12.81,-16.27,-16.27,0,*63
1518912023.07,24169,10.06,72934.0,-12.81,-16.37,-16.27,0,*63
1518912024.28,24170,10.06,72934.5,-12.81,-16.37,-16.37,0,*6A
1518912025.52,24171,10.06,72938.5,-12.79,-16.37,-16.37,0,*6C
1518912026.76,24172,10.06,72936.3,-12.81,-16.37,-16.27,0,*69
1518912028.0,24173,10.06,72934.8,-12.81,-16.37,-16.27,0,*68
1518912029.27,24174,10.06,72934.3,-12.81,-16.27,-16.27,0,*6E
1518912030.5,24175,10.06,72932.0,-12.81,-16.27,-16.37,0,*6E
1518912031.72,24176,10.06,72934.8,-12.81,-16.37,-16.37,0,*6C
1518912032.96,24177,10.0,72932.5,-12.81,-16.37,-16.27,0,*6C
1518912034.17,24178,10.06,72934.8,-12.81,-16.37,-16.37,0,*62
1518912035.41,24179,10.06,72934.0,-12.81,-16.27,-16.37,0,*62
1518912036.62,24180,10.06,72934.8,-12.81,-16.37,-16.37,0,*65
1518912037.87,24181,10.0,72932.5,-12.85,-16.41,-16.31,0,*67
1518912039.09,24182,10.06,72934.8,-12.85,-16.41,-16.41,0,*63
1518912040.33,24183,10.06,72934.8,-12.81,-16.27,-16.37,0,*67
1518912041.54,24184,10.0,72932.5,-12.81,-16.37,-16.37,0,*61
1518912042.78,24185,10.0,72934.8,-12.85,-16.41,-16.31,0,*63
1518912044.05,24186,10.06,72936.3,-12.81,-16.27,-16.27,0,*63
1518912045.29,24187,10.0,72934.8,-12.85,-16.41,-16.31,0,*61
1518912046.56,24188,10.06,72934.0,-12.81,-16.27,-16.27,0,*6D
1518912047.8,24189,10.0,72934.0,-12.81,-16.37,-16.27,0,*6D
1518912049.04,24190,10.06,72936.5,-12.81,-16.37,-16.27,0,*65
1518912050.28,24191,10.06,72938.0,-12.81,-16.37,-16.27,0,*64
1518912051.49,24192,10.06,72936.0,-12.81,-16.37,-16.37,0,*66
1518912052.7,24193,10.0,72934.0,-12.81,-16.37,-16.37,0,*67
1518912053.95,24194,10.06,72936.0,-12.81,-16.37,-16.27,0,*61
1518912055.19,24195,10.0,72932.0,-12.81,-16.37,-16.27,0,*60
1518912056.45,24196,10.06,72934.0,-12.81,-16.51,-16.27,0,*63
1518912057.66,24197,10.0,72932.0,-12.81,-16.37,-16.37,0,*63
1518912058.93,24198,10.06,72934.0,-12.79,-16.37,-16.27,0,*6A
1518912060.17,24199,10.06,72938.3,-12.81,-16.37,-16.27,0,*6C
1518912061.41,24200,10.06,72936.8,-12.81,-16.37,-16.27,0,*6F
1518912062.66,24201,10.06,72936.8,-12.81,-16.37,-16.27,0,*6E
1518912063.9,24202,10.06,72936.8,-12.81,-16.37,-16.27,0,*6D
1518912065.11,24203,10.06,72934.3,-12.81,-16.37,-16.37,0,*6D
1518912066.35,24204,10.06,72936.0,-12.81,-16.37,-16.27,0,*6B
1518912067.61,24205,10.0,72934.5,-12.81,-16.27,-16.27,0,*6B
1518912068.88,24206,10.0,72932.8,-12.81,-16.27,-16.27,0,*68
1518912070.12,24207,10.06,72936.8,-12.81,-16.41,-16.27,0,*69
1518912071.36,24208,10.06,72934.3,-12.81,-16.37,-16.27,0,*67
1518912072.6,24209,10.0,72932.3,-12.81,-16.37,-16.27,0,*66
1518912073.82,24210,10.0,72932.3,-12.81,-16.37,-16.37,0,*6F
1518912075.08,24211,10.06,72936.8,-12.81,-16.27,-16.27,0,*6E
1518912076.32,24212,10.06,72934.0,-12.81,-16.37,-16.27,0,*6C
1518912077.56,24213,10.0,72936.3,-12.81,-16.37,-16.27,0,*6D
1518912078.83,24214,10.0,72934.0,-12.81,-16.27,-16.27,0,*6B
1518912080.07,24215,10.0,72934.0,-12.81,-16.37,-16.27,0,*6B
1518912081.31,24216,10.0,72936.0,-12.81,-16.37,-16.27,0,*68
1518912082.55,24217,10.0,72938.3,-12.81,-16.37,-16.27,0,*69
1518912083.79,24218,10.06,72938.3,-12.81,-16.41,-16.27,0,*67
1518912085.03,24219,10.0,72932.8,-12.81,-16.37,-16.27,0,*67
1518912086.3,24220,10.0,72938.5,-12.81,-16.27,-16.27,0,*6C
1518912087.56,24221,10.06,72938.5,-12.81,-16.27,-16.27,0,*6D
1518912088.8,24222,10.0,72934.3,-12.81,-16.37,-16.27,0,*6F
1518912090.07,24223,10.06,72938.3,-12.79,-16.37,-16.27,0,*69
1518912091.34,24224,10.0,72936.0,-12.79,-16.37,-16.27,0,*6E
1518912092.6,24225,10.0,72934.5,-12.81,-16.27,-16.27,0,*69
1518912093.87,24226,10.0,72934.0,-12.81,-16.27,-16.27,0,*6A
1518912095.11,24227,10.06,72936.8,-12.81,-16.37,-16.27,0,*6A
1518912096.37,24228,10.0,72932.8,-12.81,-16.27,-16.27,0,*64
1518912097.63,24229,10.0,72936.0,-12.81,-16.27,-16.27,0,*65
1518912098.9,24230,10.06,72936.5,-12.81,-16.27,-16.27,0,*6D
1518912100.14,24231,10.06,72936.5,-12.81,-16.37,-16.27,0,*6D
1518912101.4,24232,10.0,72934.5,-12.81,-16.27,-16.27,0,*6F
1518912102.67,24233,10.06,72936.3,-12.81,-16.27,-16.27,0,*6E
1518912103.91,24234,10.0,72932.3,-12.81,-16.41,-16.27,0,*69
1518912105.17,24235,10.0,72932.0,-12.81,-16.27,-16.23,0,*6C
1518912106.44,24236,10.06,72936.0,-12.79,-16.37,-16.23,0,*69
1518912107.71,24237,10.0,72934.3,-12.81,-16.27,-16.23,0,*6E
1518912108.95,24238,10.0,72934.0,-12.81,-16.37,-16.23,0,*60
1518912110.19,24239,10.06,72938.0,-12.81,-16.37,-16.23,0,*61
1518912111.45,24240,10.0,72932.3,-12.81,-16.27,-16.23,0,*6E
1518912112.71,24241,10.06,72938.0,-12.81,-16.27,-16.23,0,*6F
1518912114.01,24242,10.0,72934.3,-12.79,-16.27,-16.13,0,*68
1518912115.3,24243,10.0,72932.0,-12.79,-16.27,-16.23,0,*6A
1518912116.56,24244,10.06,72936.8,-12.79,-16.37,-16.23,0,*6C
1518912117.83,24245,10.06,72936.0,-12.81,-16.27,-16.23,0,*6B
1518912119.09,24246,10.0,72932.3,-12.81,-16.27,-16.23,0,*68
1518912120.35,24247,10.0,72936.3,-12.81,-16.27,-16.23,0,*69
1518912121.62,24248,10.06,72936.8,-12.81,-16.27,-16.13,0,*65
1518912122.86,24249,10.06,72938.3,-12.81,-16.37,-16.23,0,*66
1518912124.15,24250,10.06,72938.3,-12.79,-16.27,-16.23,0,*68
1518912125.41,24251,10.0,72936.3,-12.81,-16.27,-16.23,0,*6E
1518912126.71,24252,10.0,72936.0,-12.79,-16.27,-16.23,0,*6A
1518912127.97,24253,10.06,72936.8,-12.81,-16.27,-16.23,0,*6C
1518912129.21,24254,10.06,72936.3,-12.81,-16.37,-16.23,0,*6A
1518912130.47,24255,10.0,72936.0,-12.81,-16.27,-16.23,0,*6A
1518912131.74,24256,10.06,72938.3,-12.81,-16.27,-16.27,0,*6D
1518912133.0,24257,10.06,72936.5,-12.79,-16.37,-16.23,0,*6E
1518912134.27,24258,10.0,72932.3,-12.81,-16.27,-16.23,0,*67
1518912135.53,24259,10.0,72932.3,-12.81,-16.27,-16.23,0,*66
1518912136.79,24260,10.0,72934.8,-12.81,-16.27,-16.23,0,*6C
1518912138.06,24261,10.06,72936.8,-12.81,-16.27,-16.23,0,*6D
1518912139.32,24262,10.0,72934.8,-12.81,-16.27,-16.23,0,*6E
1518912140.61,24263,10.06,72936.5,-12.79,-16.27,-16.13,0,*6B
1518912141.88,24264,10.06,72938.8,-12.81,-16.27,-16.23,0,*68
1518912143.12,24265,10.06,72938.3,-12.81,-16.37,-16.23,0,*68
1518912144.38,24266,10.06,72936.5,-12.81,-16.27,-16.23,0,*6A
1518912145.65,24267,10.06,72936.0,-12.81,-16.27,-16.13,0,*68
1518912146.94,24268,10.06,72936.0,-12.79,-16.27,-16.23,0,*63
1518912148.2,24269,10.0,72934.0,-12.81,-16.27,-16.23,0,*65
1518912149.46,24270,10.0,72936.3,-12.81,-16.27,-16.23,0,*6D
1518912150.73,24271,10.0,72934.3,-12.81,-16.27,-16.13,0,*6F
1518912151.97,24272,10.0,72934.5,-12.81,-16.37,-16.23,0,*6E
1518912153.23,24273,10.0,72934.3,-12.81,-16.27,-16.23,0,*6E
1518912154.5,24274,10.06,72932.3,-12.81,-16.27,-16.23,0,*69
1518912155.76,24275,10.06,72938.3,-12.81,-16.27,-16.23,0,*68
1518912157.03,24276,10.0,72932.3,-12.81,-16.27,-16.13,0,*68
1518912158.29,24277,10.06,72938.5,-12.81,-16.27,-16.23,0,*6A
1518912159.58,24278,10.0,72934.0,-12.79,-16.27,-16.23,0,*62
1518912160.84,24279,10.06,72936.3,-12.81,-16.27,-16.23,0,*64
1518912162.14,24280,10.0,72932.5,-12.79,-16.27,-16.13,0,*66
1518912163.4,24281,10.06,72936.0,-12.81,-16.27,-16.23,0,*63
1518912164.66,24282,10.06,72934.0,-12.81,-16.27,-16.23,0,*60
1518912165.93,24283,10.0,72934.5,-12.81,-16.27,-16.23,0,*61
1518912167.19,24284,10.06,72932.8,-12.81,-16.27,-16.23,0,*66
1518912168.45,24285,10.0,72934.0,-12.81,-16.27,-16.23,0,*67
1518912169.72,24286,10.06,72934.3,-12.81,-16.27,-16.13,0,*67
1518912170.98,24287,10.06,72936.5,-12.81,-16.27,-16.23,0,*65
1518912172.25,24288,10.0,72932.0,-12.81,-16.23,-16.23,0,*6E
1518912173.51,24289,10.0,72930.5,-12.81,-16.27,-16.23,0,*6B
1518912174.75,24290,10.06,72932.8,-12.81,-16.37,-16.23,0,*62
1518912176.01,24291,10.0,72934.3,-12.81,-16.27,-16.23,0,*62
1518912177.28,24292,10.0,72934.0,-12.81,-16.27,-16.13,0,*62
1518912178.54,24293,10.0,72932.8,-12.81,-16.23,-16.23,0,*64
1518912179.81,24294,10.06,72932.8,-12.85,-16.27,-16.27,0,*67
1518912181.07,24295,10.0,72930.3,-12.81,-16.23,-16.23,0,*62
1518912182.33,24296,10.06,72938.5,-12.81,-16.23,-16.23,0,*61
1518912183.63,24297,10.06,72934.0,-12.79,-16.23,-16.13,0,*64
1518912184.89,24298,10.06,72932.3,-12.81,-16.27,-16.23,0,*6B
1518912186.15,24299,10.0,72934.0,-12.81,-16.23,-16.23,0,*6E
1518912187.42,24300,10.06,72936.3,-12.81,-16.23,-16.23,0,*6F
1518912188.68,24301,10.06,72936.3,-12.81,-16.23,-16.27,0,*6A
1518912189.94,24302,10.0,72934.8,-12.81,-16.23,-16.27,0,*69
1518912191.21,24303,10.06,72932.0,-12.81,-16.23,-16.27,0,*68
1518912192.47,24304,10.06,72936.3,-12.81,-16.23,-16.27,0,*6F
1518912193.73,24305,10.06,72934.0,-12.85,-16.27,-16.31,0,*69
1518912194.99,24306,10.06,72936.8,-12.85,-16.31,-16.31,0,*6D
1518912196.23,24307,10.06,72936.3,-12.85,-16.31,-16.41,0,*6B
1518912197.49,24308,10.06,72938.0,-12.85,-16.31,-16.27,0,*64
1518912198.76,24309,10.0,72934.0,-12.85,-16.27,-16.27,0,*62
1518912200.02,24310,10.06,72934.5,-12.85,-16.27,-16.27,0,*6A
1518912201.29,24311,10.06,72936.5,-12.85,-16.27,-16.31,0,*6C
1518912202.57,24312,10.0,72932.3,-12.87,-16.31,-16.31,0,*6A
1518912203.84,24313,10.0,72932.0,-12.85,-16.27,-16.31,0,*6E
1518912205.1,24314,10.06,72934.5,-12.85,-16.27,-16.31,0,*69
1518912206.34,24315,10.06,72934.8,-12.85,-16.27,-16.41,0,*6F
1518912207.61,24316,10.06,72938.0,-12.85,-16.27,-16.31,0,*6B
1518912208.87,24317,10.06,72936.5,-12.85,-16.27,-16.31,0,*6A
1518912210.11,24318,10.06,72934.5,-12.85,-16.27,-16.41,0,*62
1518912211.37,24319,10.0,72934.3,-12.85,-16.27,-16.31,0,*64
1518912212.64,24320,10.0,72932.3,-12.85,-16.27,-16.31,0,*6E
1518912213.9,24321,10.06,72934.5,-12.87,-16.31,-16.45,0,*69
1518912215.16,24322,10.06,72938.3,-12.85,-16.27,-16.31,0,*6C
1518912216.42,24323,10.06,72936.5,-12.85,-16.17,-16.31,0,*6E
1518912217.69,24324,10.0,72934.0,-12.85,-16.27,-16.31,0,*6A
1518912218.93,24325,10.06,72936.0,-12.85,-16.27,-16.41,0,*6C
1518912220.17,24326,10.06,72934.8,-12.85,-16.27,-16.41,0,*6F
1518912221.44,24327,10.06,72934.5,-12.85,-16.27,-16.31,0,*69
1518912222.7,24328,10.06,72934.5,-12.85,-16.27,-16.31,0,*66
1518912223.94,24329,10.06,72936.0,-12.85,-16.27,-16.41,0,*60
1518912225.18,24330,10.0,72934.5,-12.85,-16.27,-16.41,0,*68
1518912226.42,24331,10.06,72934.0,-12.85,-16.27,-16.41,0,*69
1518912227.66,24332,10.06,72934.5,-12.85,-16.27,-16.41,0,*6A
1518912228.9,24333,10.0,72934.3,-12.85,-16.31,-16.41,0,*6C
1518912230.14,24334,10.06,72934.8,-12.85,-16.31,-16.41,0,*6B
1518912231.38,24335,10.06,72932.8,-12.85,-16.31,-16.59,0,*63
1518912232.64,24336,10.06,72934.8,-12.87,-16.37,-16.51,0,*6C
1518912233.88,24337,10.06,72936.5,-12.85,-16.31,-16.45,0,*6C
1518912235.11,24338,10.0,72934.3,-12.85,-16.31,-16.45,0,*63
1518912236.33,24339,10.06,72936.0,-12.85,-16.41,-16.59,0,*68
1518912237.57,24340,10.0,72934.3,-12.85,-16.31,-16.59,0,*61
1518912238.8,24341,10.06,72936.0,-12.85,-16.41,-16.59,0,*67
1518912240.03,24342,10.0,72934.0,-12.85,-16.31,-16.45,0,*6E
1518912241.26,24343,10.06,72934.3,-12.85,-16.31,-16.45,0,*6F
1518912242.49,24344,10.0,72932.3,-12.85,-16.31,-16.45,0,*68
1518912243.75,24345,10.0,72932.3,-12.85,-16.31,-16.65,0,*6B
1518912244.97,24346,10.0,72932.8,-12.81,-16.37,-16.55,0,*69
1518912246.21,24347,10.06,72938.3,-12.81,-16.27,-16.55,0,*69
1518912247.45,24348,10.06,72934.8,-12.81,-16.27,-16.55,0,*66
1518912248.7,24349,10.06,72934.0,-12.85,-16.41,-16.65,0,*60
1518912249.94,24350,10.0,72932.8,-12.85,-16.41,-16.65,0,*68
1518912251.19,24351,10.0,72932.5,-12.85,-16.41,-16.65,0,*69
1518912252.43,24352,10.0,72934.3,-12.85,-16.41,-16.65,0,*6A
1518912253.67,24353,10.0,72932.0,-12.85,-16.31,-16.59,0,*63
1518912254.91,24354,10.0,72932.5,-12.85,-16.31,-16.59,0,*64
1518912256.16,24355,10.06,72936.3,-12.87,-16.45,-16.79,0,*66
1518912257.38,24356,10.06,72932.8,-12.85,-16.41,-16.59,0,*61
1518912258.61,24357,10.0,72932.0,-12.85,-16.45,-16.59,0,*64
1518912259.87,24358,10.0,72934.8,-12.87,-16.45,-16.69,0,*6A
1518912261.09,24359,10.06,72934.8,-12.85,-16.45,-16.75,0,*64
1518912262.32,24360,10.0,72932.5,-12.85,-16.45,-16.75,0,*6E
1518912263.54,24361,10.06,72936.0,-12.85,-16.45,-16.75,0,*6F
1518912264.76,24362,10.0,72932.5,-12.85,-16.55,-16.75,0,*6D
1518912266.0,24363,10.06,72934.0,-12.85,-16.45,-16.65,0,*6C
1518912267.24,24364,10.06,72932.8,-12.85,-16.45,-16.65,0,*6B
1518912268.49,24365,10.06,72936.3,-12.85,-16.45,-16.65,0,*6A
1518912269.78,24366,10.06,72932.8,-12.87,-16.51,-16.69,0,*62
1518912271.0,24367,10.0,72934.3,-12.85,-16.45,-16.75,0,*69
1518912272.24,24368,10.06,72934.3,-12.85,-16.45,-16.65,0,*67
1518912273.48,24369,10.0,72934.8,-12.85,-16.45,-16.65,0,*66
1518912274.7,24370,10.0,72934.5,-12.85,-16.45,-16.75,0,*6F
1518912275.94,24371,10.0,72932.8,-12.85,-16.45,-16.65,0,*6F
1518912277.16,24372,10.0,72934.5,-12.85,-16.45,-16.75,0,*6D
1518912278.41,24373,10.0,72934.5,-12.85,-16.45,-16.65,0,*6D
1518912279.65,24374,10.0,72934.8,-12.85,-16.55,-16.65,0,*6B
1518912280.88,24375,10.0,72932.5,-12.85,-16.55,-16.75,0,*6B
1518912282.12,24376,10.0,72932.0,-12.85,-16.45,-16.65,0,*68
1518912283.38,24377,10.0,72932.0,-12.87,-16.51,-16.79,0,*63
1518912284.61,24378,10.0,72932.8,-12.85,-16.55,-16.75,0,*66
1518912285.83,24379,10.0,72934.8,-12.85,-16.45,-16.75,0,*66
1518912287.05,24380,10.06,72936.5,-12.85,-16.45,-16.75,0,*60
1518912288.27,24381,10.0,72932.0,-12.85,-16.45,-16.79,0,*6D
1518912289.5,24382,10.0,72934.8,-12.85,-16.55,-16.75,0,*63
1518912290.72,24383,10.0,72934.3,-12.85,-16.55,-16.75,0,*62
1518912291.99,24384,10.06,72936.8,-12.87,-16.51,-16.79,0,*6F
1518912293.21,24385,10.06,72938.5,-12.85,-16.45,-16.79,0,*69
1518912294.43,24386,10.0,72932.3,-12.85,-16.55,-16.75,0,*67
1518912295.68,24387,10.0,72934.3,-12.87,-16.59,-16.83,0,*61
1518912296.9,24388,10.06,72936.0,-12.85,-16.55,-16.79,0,*65
1518912298.12,24389,10.06,72936.8,-12.85,-16.45,-16.79,0,*65
1518912299.34,24390,10.06,72934.8,-12.85,-16.55,-16.79,0,*6C
1518912300.56,24391,10.0,72934.5,-12.85,-16.45,-16.79,0,*6C
1518912301.8,24392,10.0,72934.8,-12.87,-16.59,-16.83,0,*65
1518912303.02,24393,10.0,72934.8,-12.85,-16.55,-16.79,0,*6F
1518912304.25,24394,10.06,72934.8,-12.85,-16.55,-16.79,0,*68
1518912305.47,24395,10.0,72934.0,-12.85,-16.55,-16.79,0,*69
1518912306.69,24396,10.06,72936.0,-12.85,-16.45,-16.79,0,*6B
1518912307.9,24397,10.06,72936.0,-12.85,-16.59,-16.89,0,*68
1518912309.12,24398,10.0,72934.5,-12.85,-16.59,-16.89,0,*67
1518912310.33,24399,10.0,72934.3,-12.85,-16.59,-16.89,0,*66
1518912311.55,24400,10.06,72936.8,-12.85,-16.55,-16.79,0,*62
1518912312.77,24401,10.0,72934.5,-12.85,-16.59,-16.89,0,*60
1518912313.99,24402,10.0,72932.5,-12.81,-16.55,-16.83,0,*61
1518912315.2,24403,10.0,72936.0,-12.85,-16.45,-16.93,0,*64
1518912316.41,24404,10.0,72932.8,-12.85,-16.59,-16.93,0,*6E
1518912317.68,24405,10.0,72932.0,-12.87,-16.65,-16.93,0,*62
1518912318.9,24406,10.06,72934.8,-12.85,-16.55,-16.89,0,*6B
1518912320.11,24407,10.0,72932.0,-12.81,-16.59,-16.83,0,*68
1518912321.33,24408,10.0,72932.5,-12.85,-16.59,-16.89,0,*69
1518912322.55,24409,10.0,72934.0,-12.85,-16.55,-16.89,0,*64
1518912323.79,24410,10.06,72932.5,-12.85,-16.65,-16.89,0,*6F
1518912325.05,24411,10.0,72932.5,-12.87,-16.69,-16.93,0,*6B
1518912326.32,24412,10.0,72936.0,-12.87,-16.69,-16.97,0,*6C
1518912327.56,24413,10.06,72936.3,-12.85,-16.65,-16.93,0,*67
1518912328.83,24414,10.0,72932.5,-12.85,-16.65,-17.03,0,*68
1518912330.1,24415,10.06,72932.3,-12.85,-16.65,-17.03,0,*69
1518912331.34,24416,10.06,72938.0,-12.87,-16.79,-16.97,0,*69
1518912332.61,24417,10.06,72936.3,-12.85,-16.65,-17.03,0,*6B
1518912333.89,24418,10.0,72934.5,-12.85,-16.65,-17.03,0,*64
1518912335.13,24419,10.0,72934.0,-12.85,-16.75,-17.03,0,*64
1518912336.38,24420,10.0,72934.0,-12.85,-16.59,-17.03,0,*60
1518912337.61,24421,10.0,72932.8,-12.85,-16.65,-16.93,0,*66
1518912338.89,24422,10.0,72932.3,-12.85,-16.65,-17.03,0,*6D
1518912340.13,24423,10.06,72934.0,-12.85,-16.65,-16.93,0,*64
1518912341.37,24424,10.0,72934.3,-12.87,-16.83,-16.93,0,*69
1518912342.61,24425,10.0,72932.5,-12.85,-16.79,-17.03,0,*67
1518912343.85,24426,10.06,72936.3,-12.85,-16.79,-17.03,0,*64
1518912345.1,24427,10.06,72936.5,-12.85,-16.75,-17.03,0,*69
1518912346.35,24428,10.0,72932.3,-12.85,-16.79,-17.07,0,*6E
1518912347.6,24429,10.0,72932.8,-12.85,-16.75,-17.07,0,*63
1518912348.84,24430,10.06,72934.8,-12.85,-16.79,-17.17,0,*66
1518912350.12,24431,10.0,72934.0,-12.87,-16.79,-17.07,0,*64
1518912351.37,24432,10.0,72934.3,-12.85,-16.75,-17.07,0,*69
1518912352.61,24433,10.06,72936.5,-12.85,-16.75,-17.03,0,*6C
1518912353.86,24434,10.06,72936.0,-12.85,-16.79,-17.07,0,*63
1518912355.11,24435,10.06,72938.3,-12.85,-16.75,-17.07,0,*6E
1518912356.36,24436,10.06,72936.0,-12.85,-16.79,-17.03,0,*65
1518912357.61,24437,10.06,72934.8,-12.85,-16.79,-17.07,0,*60
1518912358.86,24438,10.0,72934.8,-12.85,-16.75,-17.07,0,*63
1518912360.13,24439,10.0,72932.0,-12.87,-16.83,-17.11,0,*6E
1518912361.39,24440,10.0,72934.8,-12.87,-16.93,-17.21,0,*62
1518912362.64,24441,10.0,72934.5,-12.85,-16.79,-17.07,0,*61
1518912363.91,24442,10.0,72934.0,-12.87,-16.79,-17.21,0,*64
1518912365.16,24443,10.06,72938.8,-12.85,-16.75,-17.07,0,*6F
1518912366.4,24444,10.0,72934.8,-12.85,-16.79,-17.17,0,*65
1518912367.66,24445,10.0,72932.8,-12.85,-16.79,-17.07,0,*65
1518912368.9,24446,10.0,72932.8,-12.85,-16.89,-17.07,0,*69
1518912370.17,24447,10.06,72934.0,-12.87,-16.93,-17.21,0,*65
1518912371.42,24448,10.0,72932.5,-12.85,-16.79,-17.07,0,*68
1518912372.66,24449,10.0,72934.8,-12.85,-16.79,-17.17,0,*68
1518912373.9,24450,10.0,72932.5,-12.85,-16.79,-17.17,0,*60
1518912375.17,24451,10.06,72934.3,-12.87,-16.83,-17.11,0,*60
1518912376.41,24452,10.0,72934.8,-12.85,-16.83,-17.21,0,*62
1518912377.68,24453,10.06,72934.3,-12.87,-16.83,-17.11,0,*62
1518912378.93,24454,10.0,72934.8,-12.85,-16.79,-17.07,0,*65
1518912380.2,24455,10.0,72932.8,-12.87,-16.83,-17.21,0,*67
1518912381.44,24456,10.06,72936.0,-12.85,-16.89,-17.17,0,*69
1518912382.71,24457,10.06,72932.3,-12.87,-16.79,-17.11,0,*63
1518912383.96,24458,10.06,72934.8,-12.85,-16.79,-17.07,0,*69
1518912385.24,24459,10.06,72934.8,-12.87,-16.83,-17.07,0,*6F
1518912386.48,24460,10.0,72932.8,-12.85,-16.83,-17.11,0,*60
1518912387.73,24461,10.0,72930.8,-12.85,-16.79,-17.07,0,*63
1518912388.97,24462,10.0,72932.8,-12.85,-16.89,-17.17,0,*6E
1518912390.21,24463,10.06,72932.8,-12.85,-16.79,-17.17,0,*60
1518912391.46,24464,10.0,72934.3,-12.85,-16.89,-17.07,0,*69
1518912392.71,24465,10.06,72934.0,-12.85,-16.79,-17.07,0,*67
1518912393.95,24466,10.0,72932.0,-12.85,-16.83,-17.11,0,*66
1518912395.23,24467,10.0,72930.5,-12.87,-16.83,-17.11,0,*65
1518912396.47,24468,10.0,72930.5,-12.85,-16.89,-17.07,0,*65
1518912397.72,24469,10.0,72934.8,-12.85,-16.89,-17.07,0,*64
1518912398.99,24470,10.06,72932.8,-12.87,-16.93,-17.07,0,*65
1518912400.26,24471,10.0,72934.8,-12.87,-16.97,-17.21,0,*64
1518912401.51,24472,10.06,72932.5,-12.85,-16.89,-17.07,0,*6E
1518912402.75,24473,10.06,72938.8,-12.85,-16.89,-17.17,0,*6E
1518912404.02,24474,10.06,72936.3,-12.87,-16.93,-17.07,0,*61
1518912405.29,24475,10.06,72936.3,-12.87,-16.83,-17.11,0,*66
1518912406.54,24476,10.0,72934.8,-12.85,-16.89,-17.07,0,*6A
1518912407.79,24477,10.0,72934.0,-12.85,-16.89,-17.07,0,*6B
1518912409.03,24478,10.0,72934.5,-12.85,-16.89,-17.03,0,*60
1518912410.29,24479,10.0,72932.5,-12.87,-16.93,-17.11,0,*6B
1518912411.53,24480,10.06,72936.0,-12.85,-16.93,-17.17,0,*69
1518912412.79,24481,10.0,72934.5,-12.87,-16.93,-17.11,0,*6C
1518912414.04,24482,10.0,72932.0,-12.85,-16.93,-17.07,0,*6A
1518912415.28,24483,10.06,72938.8,-12.85,-16.89,-17.03,0,*64
1518912416.55,24484,10.0,72934.5,-12.87,-16.97,-17.21,0,*6E
1518912417.8,24485,10.0,72934.5,-12.85,-16.89,-17.07,0,*66
1518912419.07,24486,10.06,72934.0,-12.87,-16.83,-17.07,0,*6D
1518912420.32,24487,10.06,72938.3,-12.85,-16.93,-17.07,0,*6F
1518912421.56,24488,10.0,72932.5,-12.85,-16.89,-17.03,0,*6F
1518912422.8,24489,10.06,72934.8,-12.85,-16.89,-17.03,0,*6E
1518912424.04,24490,10.0,72932.8,-12.85,-16.93,-17.03,0,*6D
1518912425.31,24491,10.0,72936.0,-12.87,-16.93,-17.07,0,*6A
1518912426.56,24492,10.0,72934.3,-12.85,-16.89,-17.07,0,*60
1518912427.83,24493,10.0,72932.5,-12.87,-16.93,-17.21,0,*6C
1518912429.1,24494,10.06,72936.8,-12.87,-16.83,-17.07,0,*6E
1518912430.35,24495,10.0,72932.8,-12.85,-16.79,-17.07,0,*68
1518912431.63,24496,10.0,72934.5,-12.87,-16.97,-17.07,0,*69
1518912432.84,24497,10.06,72936.8,-12.81,-16.75,-16.89,0,*65
1518912434.08,24498,10.0,72934.0,-12.87,-16.93,-16.97,0,*6B
1518912435.32,24499,10.0,72938.0,-12.87,-16.93,-16.97,0,*6A
1518912436.53,24500,10.0,72934.5,-12.85,-16.89,-16.93,0,*66
1518912437.78,24501,10.0,72934.8,-12.85,-16.79,-17.07,0,*64
1518912439.05,24502,10.0,72932.0,-12.87,-16.83,-17.11,0,*67
1518912440.26,24503,10.06,72938.8,-12.85,-16.79,-16.93,0,*6A
1518912441.54,24504,10.06,72938.5,-12.87,-16.83,-17.07,0,*66
1518912442.75,24505,10.0,72934.3,-12.85,-16.79,-16.93,0,*6C
1518912444.0,24506,10.06,72936.3,-12.87,-16.83,-16.97,0,*6C
1518912445.24,24507,10.06,72936.5,-12.85,-16.79,-17.03,0,*66
1518912446.48,24508,10.0,72934.0,-12.85,-16.89,-17.03,0,*66
1518912447.73,24509,10.0,72936.5,-12.85,-16.79,-17.03,0,*68
1518912449.0,24510,10.0,72934.5,-12.87,-16.93,-17.07,0,*62
1518912450.24,24511,10.06,72938.0,-12.85,-16.89,-17.17,0,*6B
1518912451.48,24512,10.0,72938.8,-12.85,-16.89,-17.03,0,*6D
1518912452.75,24513,10.0,72938.5,-12.87,-16.93,-17.11,0,*66
1518912453.99,24514,10.0,72932.5,-12.85,-16.79,-17.03,0,*64
1518912455.23,24515,10.0,72938.8,-12.85,-16.79,-17.17,0,*60
1518912456.48,24516,10.0,72938.8,-12.85,-16.89,-17.07,0,*6D
1518912457.73,24517,10.0,72938.8,-12.85,-16.79,-17.07,0,*63
1518912458.98,24518,10.0,72934.0,-12.85,-16.79,-17.07,0,*6C
1518912460.22,24519,10.06,72936.5,-12.85,-16.79,-17.17,0,*6C
1518912461.46,24520,10.0,72936.8,-12.85,-16.89,-17.17,0,*69
1518912462.73,24521,10.0,72936.5,-12.87,-16.97,-17.11,0,*63
1518912463.99,24522,10.06,72940.8,-12.87,-16.97,-17.25,0,*67
1518912465.26,24523,10.0,72936.3,-12.87,-16.97,-17.21,0,*62
1518912466.49,24524,10.06,72938.3,-12.85,-16.93,-17.25,0,*67
1518912467.73,24525,10.06,72936.3,-12.85,-16.89,-17.17,0,*6C
1518912469.0,24526,10.06,72942.8,-12.87,-16.93,-17.11,0,*60
1518912470.27,24527,10.06,72938.5,-12.87,-16.93,-17.07,0,*66
1518912471.51,24528,10.06,72938.5,-12.85,-16.79,-17.03,0,*6B
1518912472.75,24529,10.0,72934.8,-12.85,-17.07,-17.31,0,*63
1518912473.99,24530,10.06,72936.5,-12.85,-17.03,-17.31,0,*6F
1518912475.25,24531,10.0,72934.0,-12.87,-16.97,-17.25,0,*65
1518912476.5,24532,10.0,72934.5,-12.87,-16.97,-17.35,0,*67
1518912477.8,24533,10.06,72938.0,-12.87,-17.21,-17.41,0,*69
1518912479.09,24534,10.06,72934.0,-12.87,-17.25,-17.55,0,*6F
1518912480.38,24535,10.0,72928.0,-12.87,-17.11,-17.41,0,*6C
1518912481.65,24536,10.0,72930.5,-12.89,-17.07,-17.41,0,*66
1518912482.89,24537,10.0,72932.5,-12.89,-17.21,-17.49,0,*6B
1518912484.16,24538,10.0,72930.3,-12.89,-17.21,-17.41,0,*6C
1518912485.43,24539,10.0,72930.8,-12.89,-17.21,-17.41,0,*6D
1518912486.7,24540,10.0,72930.8,-12.89,-17.07,-17.41,0,*67
1518912487.97,24541,10.06,72932.8,-12.91,-17.17,-17.35,0,*6D
1518912489.27,24542,10.06,72932.0,-12.91,-17.17,-17.45,0,*69
1518912490.57,24543,10.0,72930.0,-12.91,-17.17,-17.55,0,*69
1518912491.86,24544,10.0,72928.8,-12.91,-17.25,-17.59,0,*63
1518912493.12,24545,10.0,72930.8,-12.91,-17.31,-17.63,0,*6E
1518912494.42,24546,10.0,72928.8,-12.91,-17.25,-17.59,0,*61
1518912495.72,24547,10.0,72930.3,-12.91,-17.17,-17.59,0,*61